2021-07-31 00:05:46 r, 20.96m,0000000001Hz,0001313833c,0000002.851s, 030.2C,00002191
2021-07-31 00:15:47 r, 20.94m,0000000001Hz,0001291989c,0000002.804s, 029.9C,00002191
2021-07-31 00:25:47 r, 20.95m,0000000000Hz,0001295839c,0000002.812s, 029.9C,00002191
2021-07-31 00:35:46 r, 20.91m,0000000000Hz,0001246728c,0000002.706s, 029.6C,00002191
2021-07-31 00:45:47 r, 20.86m,0000000000Hz,0001203374c,0000002.611s, 029.6C,00002191
2021-07-31 00:55:46 r, 20.82m,0000000001Hz,0001150654c,0000002.497s, 029.3C,00002191
2021-07-31 01:05:46 r, 20.72m,0000000000Hz,0001048791c,0000002.276s, 029.3C,00002191
2021-07-31 01:15:46 r, 20.52m,0000000000Hz,0000882368c,0000001.915s, 029.0C,00002191
2021-07-31 01:25:48 r, 20.50m,0000000000Hz,0000866942c,0000001.881s, 029.0C,00002191
2021-07-31 01:35:46 r, 20.45m,0000000001Hz,0000826416c,0000001.793s, 028.6C,00002191
2021-07-31 01:45:48 r, 20.37m,0000000001Hz,0000769778c,0000001.671s, 028.6C,00002191
2021-07-31 01:55:46 r, 20.31m,0000000001Hz,0000721491c,0000001.566s, 028.3C,00002191
2021-07-31 02:05:46 r, 20.15m,0000000001Hz,0000627540c,0000001.362s, 028.3C,00002191
2021-07-31 02:15:46 r, 20.11m,0000000001Hz,0000605587c,0000001.314s, 028.3C,00002191
2021-07-31 02:25:47 r, 20.19m,0000000001Hz,0000648751c,0000001.408s, 028.0C,00002191
2021-07-31 02:35:46 r, 20.15m,0000000000Hz,0000628762c,0000001.365s, 027.7C,00002191
2021-07-31 02:45:47 r, 20.12m,0000000001Hz,0000611393c,0000001.327s, 027.7C,00002191
2021-07-31 02:55:47 r, 20.09m,0000000000Hz,0000590244c,0000001.281s, 027.3C,00002191
2021-07-31 03:05:46 r, 20.03m,0000000001Hz,0000564616c,0000001.225s, 027.3C,00002191
2021-07-31 03:15:46 r, 19.99m,0000000001Hz,0000541407c,0000001.175s, 027.3C,00002191
2021-07-31 03:25:48 r, 19.94m,0000000001Hz,0000514723c,0000001.117s, 027.0C,00002191
2021-07-31 03:35:46 r, 19.89m,0000000001Hz,0000492343c,0000001.068s, 027.0C,00002191
2021-07-31 03:45:48 r, 19.83m,0000000001Hz,0000462927c,0000001.005s, 026.7C,00002191
2021-07-31 03:55:46 r, 19.76m,0000000001Hz,0000438724c,0000000.952s, 026.7C,00002191
2021-07-31 04:05:46 r, 19.88m,0000000001Hz,0000490486c,0000001.064s, 026.4C,00002191
2021-07-31 04:15:48 r, 19.68m,0000000001Hz,0000404065c,0000000.877s, 026.4C,00002191
2021-07-31 04:25:47 r, 19.36m,0000000002Hz,0000303135c,0000000.658s, 026.4C,00002191
2021-07-31 04:35:46 r, 18.93m,0000000002Hz,0000204720c,0000000.444s, 026.4C,00002191
2021-07-31 04:45:47 r, 18.26m,0000000004Hz,0000110158c,0000000.239s, 026.1C,00002191
2021-07-31 04:55:47 r, 17.28m,0000000010Hz,0000044934c,0000000.098s, 026.1C,00002191
2021-07-31 05:05:46 r, 15.99m,0000000034Hz,0000013596c,0000000.030s, 026.1C,00002191
2021-07-31 05:15:47 r, 14.41m,0000000146Hz,0000000000c,0000000.000s, 026.1C,00002191
2021-07-31 05:25:47 r, 12.69m,0000000708Hz,0000000000c,0000000.000s, 026.1C,00002191
2021-07-31 05:35:46 r, 11.02m,0000003300Hz,0000000000c,0000000.000s, 026.1C,00002191
2021-07-31 05:45:46 r, 09.43m,0000014219Hz,0000000000c,0000000.000s, 025.7C,00002191
2021-07-31 05:55:48 r, 08.32m,0000039841Hz,0000000000c,0000000.000s, 025.4C,00002191
2021-07-31 06:05:46 r, 07.48m,0000086213Hz,0000000000c,0000000.000s, 025.4C,00002191
2021-07-31 06:15:46 r, 06.81m,0000159681Hz,0000000000c,0000000.000s, 025.4C,00002191
2021-07-31 06:25:47 r, 06.39m,0000236511Hz,0000000000c,0000000.000s, 025.4C,00002191
2021-07-31 06:35:46 r, 05.97m,0000345845Hz,0000000000c,0000000.000s, 025.4C,00002191
2021-07-31 06:45:46 r, 00.00m,0000505784Hz,0000000000c,0000000.000s, 025.4C,00002191
2021-07-31 06:55:47 r, 00.00m,0000587591Hz,0000000000c,0000000.000s, 026.1C,00002191
2021-07-31 07:05:46 r, 00.00m,0000596606Hz,0000000000c,0000000.000s, 026.7C,00002191
2021-07-31 07:15:46 r, 00.00m,0000596471Hz,0000000000c,0000000.000s, 027.3C,00002191
2021-07-31 07:25:48 r, 00.00m,0000596429Hz,0000000000c,0000000.000s, 027.7C,00002191
2021-07-31 07:35:46 r, 00.00m,0000596361Hz,0000000000c,0000000.000s, 028.6C,00002191
2021-07-31 07:45:46 r, 00.00m,0000596183Hz,0000000000c,0000000.000s, 029.6C,00002191
2021-07-31 07:55:48 r, 00.00m,0000596103Hz,0000000000c,0000000.000s, 030.6C,00002191
2021-07-31 08:05:46 r, 00.00m,0000596065Hz,0000000000c,0000000.000s, 031.5C,00002191
2021-07-31 08:15:46 r, 00.00m,0000595911Hz,0000000000c,0000000.000s, 032.8C,00002191
2021-07-31 08:25:47 r, 00.00m,0000595836Hz,0000000000c,0000000.000s, 033.8C,00002191
2021-07-31 08:35:46 r, 00.00m,0000595679Hz,0000000000c,0000000.000s, 034.8C,00002191
2021-07-31 08:45:46 r, 00.00m,0000595501Hz,0000000000c,0000000.000s, 035.4C,00002191
2021-07-31 08:55:47 r, 00.00m,0000595493Hz,0000000000c,0000000.000s, 035.7C,00002191
2021-07-31 09:05:46 r, 00.00m,0000595589Hz,0000000000c,0000000.000s, 035.7C,00002191
2021-07-31 09:15:46 r, 00.00m,0000595735Hz,0000000000c,0000000.000s, 034.8C,00002191
2021-07-31 09:25:47 r, 00.00m,0000595714Hz,0000000000c,0000000.000s, 034.4C,00002191
2021-07-31 09:35:46 r, 00.00m,0000595662Hz,0000000000c,0000000.000s, 034.8C,00002191
2021-07-31 09:45:46 r, 00.00m,0000595539Hz,0000000000c,0000000.000s, 035.1C,00002191
2021-07-31 09:55:48 r, 00.00m,0000595553Hz,0000000000c,0000000.000s, 035.4C,00002191
2021-07-31 10:05:47 r, 00.00m,0000595558Hz,0000000000c,0000000.000s, 035.4C,00002191
2021-07-31 10:15:46 r, 00.00m,0000595660Hz,0000000000c,0000000.000s, 035.1C,00002191
2021-07-31 10:25:47 r, 00.00m,0000595513Hz,0000000000c,0000000.000s, 035.1C,00002191
2021-07-31 10:35:47 r, 00.00m,0000595406Hz,0000000000c,0000000.000s, 036.0C,00002191
2021-07-31 10:45:46 r, 00.00m,0000595229Hz,0000000000c,0000000.000s, 037.3C,00002191
2021-07-31 10:55:47 r, 00.00m,0000595104Hz,0000000000c,0000000.000s, 039.3C,00002191
2021-07-31 11:05:47 r, 00.00m,0000594805Hz,0000000000c,0000000.000s, 040.9C,00002191
2021-07-31 11:15:46 r, 00.00m,0000594652Hz,0000000000c,0000000.000s, 041.9C,00002191
2021-07-31 11:25:47 r, 00.00m,0000594584Hz,0000000000c,0000000.000s, 042.2C,00002191
2021-07-31 11:35:48 r, 00.00m,0000594605Hz,0000000000c,0000000.000s, 042.2C,00002191
2021-07-31 11:45:46 r, 00.00m,0000594492Hz,0000000000c,0000000.000s, 042.8C,00002191
2021-07-31 11:55:49 r, 00.00m,0000594203Hz,0000000000c,0000000.000s, 044.1C,00002191
2021-07-31 12:05:47 r, 00.00m,0000593994Hz,0000000000c,0000000.000s, 045.4C,00002191
2021-07-31 12:15:46 r, 00.00m,0000593802Hz,0000000000c,0000000.000s, 046.7C,00002191
2021-07-31 12:25:49 r, 00.00m,0000593870Hz,0000000000c,0000000.000s, 046.7C,00002191
2021-07-31 12:35:47 r, 00.00m,0000593764Hz,0000000000c,0000000.000s, 047.3C,00002191
2021-07-31 12:45:46 r, 00.00m,0000593860Hz,0000000000c,0000000.000s, 047.3C,00002191
2021-07-31 12:55:47 r, 00.00m,0000593866Hz,0000000000c,0000000.000s, 047.3C,00002191
2021-07-31 13:05:49 r, 00.00m,0000593913Hz,0000000000c,0000000.000s, 046.7C,00002191
2021-07-31 13:15:46 r, 00.00m,0000593774Hz,0000000000c,0000000.000s, 047.3C,00002191
2021-07-31 13:25:48 r, 00.00m,0000593673Hz,0000000000c,0000000.000s, 048.0C,00002191
2021-07-31 13:35:47 r, 00.00m,0000593646Hz,0000000000c,0000000.000s, 048.3C,00002191
2021-07-31 13:45:46 r, 00.00m,0000593431Hz,0000000000c,0000000.000s, 049.3C,00002191
2021-07-31 13:55:49 r, 00.00m,0000593354Hz,0000000000c,0000000.000s, 049.6C,00002191
2021-07-31 14:05:47 r, 00.00m,0000593350Hz,0000000000c,0000000.000s, 049.9C,00002191
2021-07-31 14:15:46 r, 00.00m,0000593266Hz,0000000000c,0000000.000s, 050.6C,00002191
2021-07-31 14:25:49 r, 00.00m,0000593301Hz,0000000000c,0000000.000s, 050.2C,00002191
2021-07-31 14:35:47 r, 00.00m,0000593298Hz,0000000000c,0000000.000s, 050.6C,00002191
2021-07-31 14:45:46 r, 00.00m,0000593295Hz,0000000000c,0000000.000s, 050.2C,00002191
2021-07-31 14:55:47 r, 00.00m,0000593327Hz,0000000000c,0000000.000s, 049.9C,00002191
2021-07-31 15:05:48 r, 00.00m,0000593195Hz,0000000000c,0000000.000s, 050.9C,00002191
2021-07-31 15:15:46 r, 00.00m,0000593186Hz,0000000000c,0000000.000s, 050.9C,00002191
2021-07-31 15:25:48 r, 00.00m,0000593231Hz,0000000000c,0000000.000s, 051.2C,00002191
2021-07-31 15:35:47 r, 00.00m,0000593468Hz,0000000000c,0000000.000s, 049.6C,00002191
2021-07-31 15:45:46 r, 00.00m,0000593534Hz,0000000000c,0000000.000s, 048.6C,00002191
2021-07-31 15:55:49 r, 00.00m,0000593579Hz,0000000000c,0000000.000s, 048.6C,00002191
2021-07-31 16:05:47 r, 00.00m,0000593548Hz,0000000000c,0000000.000s, 048.9C,00002191
2021-07-31 16:15:46 r, 00.00m,0000593857Hz,0000000000c,0000000.000s, 047.3C,00002191
2021-07-31 16:25:49 r, 00.00m,0000593909Hz,0000000000c,0000000.000s, 046.4C,00002191
2021-07-31 16:35:47 r, 00.00m,0000593807Hz,0000000000c,0000000.000s, 047.0C,00002191
2021-07-31 16:45:46 r, 00.00m,0000593813Hz,0000000000c,0000000.000s, 046.7C,00002191
2021-07-31 16:55:47 r, 00.00m,0000593757Hz,0000000000c,0000000.000s, 046.7C,00002191
2021-07-31 17:05:48 r, 00.00m,0000593816Hz,0000000000c,0000000.000s, 047.0C,00002191
2021-07-31 17:15:46 r, 00.00m,0000593840Hz,0000000000c,0000000.000s, 046.7C,00002191
2021-07-31 17:25:48 r, 00.00m,0000594007Hz,0000000000c,0000000.000s, 046.0C,00002191
2021-07-31 17:35:47 r, 00.00m,0000593912Hz,0000000000c,0000000.000s, 046.0C,00002191
2021-07-31 17:45:46 r, 00.00m,0000594045Hz,0000000000c,0000000.000s, 045.4C,00002191
2021-07-31 17:55:47 r, 00.00m,0000594203Hz,0000000000c,0000000.000s, 045.1C,00002191
2021-07-31 18:05:49 r, 00.00m,0000594187Hz,0000000000c,0000000.000s, 044.4C,00002191
2021-07-31 18:15:46 r, 00.00m,0000594275Hz,0000000000c,0000000.000s, 043.8C,00002191
2021-07-31 18:25:49 r, 00.00m,0000594406Hz,0000000000c,0000000.000s, 043.1C,00002191
2021-07-31 18:35:47 r, 00.00m,0000594463Hz,0000000000c,0000000.000s, 042.5C,00002191
2021-07-31 18:45:46 r, 00.00m,0000594596Hz,0000000000c,0000000.000s, 041.9C,00002191
2021-07-31 18:55:47 r, 00.00m,0000594600Hz,0000000000c,0000000.000s, 041.5C,00002191
2021-07-31 19:05:48 r, 00.00m,0000594691Hz,0000000000c,0000000.000s, 041.2C,00002191
2021-07-31 19:15:46 r, 00.00m,0000594761Hz,0000000000c,0000000.000s, 040.6C,00002191
2021-07-31 19:25:48 r, 00.00m,0000594884Hz,0000000000c,0000000.000s, 039.3C,00002191
2021-07-31 19:35:47 r, 00.00m,0000594996Hz,0000000000c,0000000.000s, 039.0C,00002191
2021-07-31 19:45:46 r, 00.00m,0000595148Hz,0000000000c,0000000.000s, 038.3C,00002191
2021-07-31 19:55:47 r, 00.00m,0000595174Hz,0000000000c,0000000.000s, 037.7C,00002191
2021-07-31 20:05:49 r, 00.00m,0000582026Hz,0000000000c,0000000.000s, 037.0C,00002191
2021-07-31 20:15:46 r, 00.00m,0000479078Hz,0000000000c,0000000.000s, 036.7C,00002191
2021-07-31 20:25:49 r, 05.86m,0000382684Hz,0000000000c,0000000.000s, 036.4C,00002191
2021-07-31 20:35:47 r, 06.18m,0000286047Hz,0000000000c,0000000.000s, 035.7C,00002191
2021-07-31 20:45:46 r, 06.59m,0000196554Hz,0000000000c,0000000.000s, 035.1C,00002191
2021-07-31 20:55:49 r, 07.14m,0000117738Hz,0000000000c,0000000.000s, 034.4C,00002191
2021-07-31 21:05:47 r, 07.81m,0000063901Hz,0000000000c,0000000.000s, 033.5C,00002191
2021-07-31 21:15:46 r, 08.72m,0000027471Hz,0000000000c,0000000.000s, 032.8C,00002191
2021-07-31 21:25:48 r, 09.97m,0000008712Hz,0000000000c,0000000.000s, 032.2C,00002191
2021-07-31 21:35:47 r, 11.50m,0000002113Hz,0000000000c,0000000.000s, 031.9C,00002191
2021-07-31 21:45:46 r, 13.20m,0000000443Hz,0000000000c,0000000.000s, 031.5C,00002191
2021-07-31 21:55:47 r, 14.89m,0000000093Hz,0000004957c,0000000.011s, 031.2C,00002191
2021-07-31 22:05:49 r, 16.44m,0000000022Hz,0000020726c,0000000.045s, 030.9C,00002191
2021-07-31 22:15:47 r, 17.72m,0000000007Hz,0000067550c,0000000.147s, 030.6C,00002191
2021-07-31 22:25:46 r, 18.78m,0000000003Hz,0000179196c,0000000.389s, 030.2C,00002191
2021-07-31 22:35:47 r, 19.72m,0000000001Hz,0000422363c,0000000.917s, 029.9C,00002191
2021-07-31 22:45:46 r, 20.39m,0000000001Hz,0000778692c,0000001.690s, 029.6C,00002191
2021-07-31 22:55:46 r, 20.75m,0000000000Hz,0001084467c,0000002.353s, 029.6C,00002191
2021-07-31 23:05:47 r, 20.87m,0000000001Hz,0001210623c,0000002.627s, 029.6C,00002191
2021-07-31 23:15:47 r, 20.95m,0000000000Hz,0001294889c,0000002.810s, 029.3C,00002191
2021-07-31 23:25:46 r, 20.97m,0000000000Hz,0001330184c,0000002.887s, 029.3C,00002191
2021-07-31 23:35:48 r, 20.96m,0000000000Hz,0001317527c,0000002.859s, 029.3C,00002191
2021-07-31 23:45:46 r, 20.93m,0000000000Hz,0001274296c,0000002.765s, 029.3C,00002191
2021-07-31 23:55:46 r, 20.93m,0000000001Hz,0001277863c,0000002.773s, 029.3C,00002191
